Los Alamitos, CA

3:08 PM PST on January 16, 2017 (GMT -0800)
Los Alamitos Army Air Field

Weather History for KSLI - November, 2013

Change the Weather History Date:

Saturday, November 30, 2013

  Actual Average Record
Temperature  
Mean Temperature 62 °F -  
Max Temperature 74 °F 67 °F 78 °F (2003)
Min Temperature 49 °F 50 °F 39 °F (2010)
Degree Days  
Heating Degree Days 4    
Growing Degree Days 12 (Base 50)    
Moisture  
Dew Point 48 °F    
Average Humidity 73    
Maximum Humidity 100    
Minimum Humidity 27    
Precipitation  
Precipitation 0.00 in - - ()
Sea Level Pressure  
Sea Level Pressure 30.15 in    
Wind  
Wind Speed 3 mph (NW)    
Max Wind Speed 9 mph    
Max Gust Speed -    
Visibility 10 miles    
Events      
Averages and records for this station are not official NWS values.
T = Trace of Precipitation, MM = Missing Value Source: NWS Daily Summary

Daily Weather History Graph

Daily Weather History Graph

Search for Another Location

Airport or City:

Trip Planner

Search our weather history database for the weather conditions in past years. The results will help you decide how hot, cold, wet, or windy it might be!

Date:

Astronomy

Nov. 30, 2013 Rise Set
Actual Time 6:38 AM PST 4:43 PM PST
Civil Twilight 6:11 AM PST 5:10 PM PST
Nautical Twilight 5:40 AM PST 5:41 PM PST
Astronomical Twilight 5:10 AM PST 6:11 PM PST
Moon 4:00 AM PST (11/30) 3:06 PM PST (11/30)
Length of Visible Light 10h 59m
Length of Day
10h 05m
Waning Crescent, 6% of the Moon is Illuminated
Nov 30
Waning Crescent
Dec 2
New
Dec 9
First Quarter
Dec 17
Full
Dec 25
Last Quarter

Hourly Weather History & Observations

Time (PST) Temp. Dew Point Humidity Pressure Visibility Wind Dir Wind Speed Gust Speed Precip Events Conditions
12:58 AM 49.8 °F 49.8 °F 100% 30.17 in 9.0 mi North 1.2 mph - N/A   Clear
1:58 AM 50.7 °F 50.7 °F 100% 30.16 in 10.0 mi ENE 2.3 mph - N/A   Mostly Cloudy
2:58 AM 51.1 °F 51.1 °F 100% 30.17 in 10.0 mi West 3.5 mph - N/A   Mostly Cloudy
3:58 AM 52.0 °F 52.0 °F 100% 30.16 in 10.0 mi North 5.8 mph - N/A   Overcast
4:58 AM 50.4 °F 50.4 °F 100% 30.17 in 10.0 mi East 1.2 mph - N/A   Mostly Cloudy
5:58 AM 49.8 °F 49.8 °F 100% 30.17 in 10.0 mi SE 2.3 mph - N/A   Mostly Cloudy
6:58 AM 51.3 °F 51.3 °F 100% 30.18 in 10.0 mi ENE 3.5 mph - N/A   Mostly Cloudy
7:58 AM 52.9 °F 52.9 °F 100% 30.18 in 10.0 mi NW 2.3 mph - N/A   Scattered Clouds
8:58 AM 58.8 °F 57.2 °F 94% 30.19 in 10.0 mi NW 2.3 mph - N/A   Partly Cloudy
9:58 AM 65.8 °F 46.8 °F 50% 30.18 in 10.0 mi NW 6.9 mph - N/A   Partly Cloudy
10:58 AM 69.6 °F 41.5 °F 36% 30.16 in 10.0 mi WNW 5.8 mph - N/A   Partly Cloudy
11:58 AM 72.9 °F 37.6 °F 28% 30.13 in 10.0 mi NNW 6.9 mph - N/A   Partly Cloudy
12:58 PM 73.6 °F 38.3 °F 28% 30.10 in 10.0 mi WNW 8.1 mph - N/A   Scattered Clouds
1:58 PM 74.1 °F 37.8 °F 27% 30.08 in 10.0 mi WNW 6.9 mph - N/A   Mostly Cloudy
2:58 PM 74.7 °F 39.7 °F 28% 30.08 in 10.0 mi West 8.1 mph - N/A   Overcast
3:58 PM 70.9 °F 42.8 °F 36% 30.09 in 10.0 mi WNW 9.2 mph - N/A   Clear
4:58 PM 65.8 °F 43.3 °F 44% 30.10 in 10.0 mi WNW 5.8 mph - N/A   Partly Cloudy
5:58 PM 62.4 °F 43.5 °F 50% 30.12 in 10.0 mi WNW 2.3 mph - N/A   Clear
6:58 PM 59.7 °F 46.8 °F 62% 30.13 in 10.0 mi NNW 1.2 mph - N/A   Mostly Cloudy
7:58 PM 59.0 °F 52.5 °F 79% 30.15 in 10.0 mi NNE 3.5 mph - N/A   Clear
8:58 PM 56.5 °F 56.3 °F 99% 30.15 in 10.0 mi WSW 4.6 mph - N/A   Clear
9:58 PM 54.9 °F 54.9 °F 100% 30.16 in 10.0 mi Calm Calm - N/A   Clear
10:58 PM 54.3 °F 54.3 °F 100% 30.16 in 10.0 mi Calm Calm - N/A   Clear
11:58 PM 55.4 °F 55.0 °F 99% 30.15 in 10.0 mi Variable 1.2 mph - N/A   Clear